Weather History for KSDA - January, 2014

Change the Weather History Date:

Friday, January 24, 2014

  Actual Average (KOMA) Record (KOMA)
Temperature  
Mean Temperature 28 °F 24 °F  
Max Temperature 50 °F 34 °F 66 °F (1981)
Min Temperature 6 °F 14 °F -22 °F (1894)
Degree Days  
Heating Degree Days 37 41  
Month to date heating degree days 1005  
Since 1 July heating degree days 3484  
Cooling Degree Days 0 0  
Month to date cooling degree days 0  
Year to date cooling degree days 0  
Moisture  
Dew Point 11 °F    
Average Humidity 46    
Maximum Humidity 58    
Minimum Humidity 31    
Precipitation  
Precipitation 0.00 in 0.02 in 1.52 in (1967)
Month to date precipitation 0.54  
Year to date precipitation 0.54  
Snow  
Snow 0.00 in 0.20 in - ()
Month to date snowfall 4.6  
Since 1 July snowfall 13.6  
Snow Depth -    
Sea Level Pressure  
Sea Level Pressure 30.02 in    
Wind  
Wind Speed 15 mph (SW)    
Max Wind Speed 25 mph    
Max Gust Speed 32 mph    
Visibility 10 miles    
Events      
T = Trace of Precipitation, MM = Missing Value Source: NWS Daily Summary

Daily Weather History Graph

Daily Weather History Graph

Search for Another Location

Airport or City:

Trip Planner

Search our weather history database for the weather conditions in past years. The results will help you decide how hot, cold, wet, or windy it might be!

Date:

Astronomy

Jan. 24, 2014 Rise Set
Actual Time 7:38 AM CST 5:29 PM CST
Civil Twilight 7:08 AM CST 5:59 PM CST
Nautical Twilight 6:35 AM CST 6:32 PM CST
Astronomical Twilight 6:03 AM CST 7:04 PM CST
Moon 1:06 AM CST (1/24) 11:49 AM CST (1/24)
Length of Visible Light 10h 50m
Length of Day
9h 51m
Last Quarter, 44% of the Moon is Illuminated
Jan 24
Last Quarter
Jan 30
New
Feb 6
First Quarter
Feb 14
Full
Feb 22
Last Quarter

Hourly Weather History & Observations

Time (CST) Temp. Windchill Dew Point Humidity Pressure Visibility Wind Dir Wind Speed Gust Speed Precip Events Conditions
12:15 AM 6.8 °F -3.5 °F -5.8 °F 56% 30.52 in 10.0 mi SW 5.8 mph - N/A   Clear
12:35 AM 8.6 °F -6.3 °F -5.8 °F 52% 30.51 in 10.0 mi SSW 11.5 mph - N/A   Clear
12:55 AM 8.6 °F -4.7 °F -5.8 °F 52% 30.49 in 10.0 mi SW 9.2 mph - N/A   Clear
1:15 AM 10.4 °F -4.1 °F -5.8 °F 48% 30.48 in 10.0 mi SW 11.5 mph - N/A   Clear
1:35 AM 10.4 °F -5.4 °F -5.8 °F 48% 30.46 in 10.0 mi SSW 13.8 mph - N/A   Clear
1:55 AM 10.4 °F -5.4 °F -5.8 °F 48% 30.45 in 10.0 mi SSW 13.8 mph - N/A   Clear
2:15 AM 12.2 °F -4.3 °F -5.8 °F 45% 30.44 in 10.0 mi SSW 16.1 mph - N/A   Clear
2:35 AM 10.4 °F -5.4 °F -5.8 °F 48% 30.42 in 10.0 mi SSW 13.8 mph 19.6 mph N/A   Clear
2:55 AM 12.2 °F -4.3 °F -5.8 °F 45% 30.41 in 10.0 mi SSW 16.1 mph - N/A   Clear
3:15 AM 12.2 °F -4.3 °F -5.8 °F 45% 30.39 in 10.0 mi SSW 16.1 mph - N/A   Clear
3:35 AM 12.2 °F -1.8 °F -5.8 °F 45% 30.37 in 10.0 mi SSW 11.5 mph 19.6 mph N/A   Clear
3:55 AM 12.2 °F -3.7 °F -4.0 °F 48% 30.34 in 10.0 mi SSW 15.0 mph - N/A   Clear
4:15 AM 12.2 °F -3.7 °F -4.0 °F 48% 30.31 in 10.0 mi SSW 15.0 mph 23.0 mph N/A   Clear
4:35 AM 14.0 °F -3.0 °F -4.0 °F 45% 30.29 in 10.0 mi SSW 18.4 mph - N/A   Clear
4:55 AM 14.0 °F -2.5 °F -2.2 °F 49% 30.27 in 10.0 mi SSW 17.3 mph - N/A   Clear
5:15 AM 14.0 °F -3.0 °F -2.2 °F 49% 30.25 in 10.0 mi SSW 18.4 mph 24.2 mph N/A   Clear
5:35 AM 14.0 °F -2.0 °F -2.2 °F 49% 30.24 in 10.0 mi SSW 16.1 mph 21.9 mph N/A   Clear
5:55 AM 14.0 °F -0.2 °F -0.4 °F 53% 30.25 in 10.0 mi SSW 12.7 mph - N/A   Clear
6:15 AM 14.0 °F -0.8 °F -0.4 °F 53% 30.23 in 10.0 mi SSW 13.8 mph - N/A   Clear
6:35 AM 14.0 °F -0.8 °F 1.4 °F 57% 30.22 in 10.0 mi South 13.8 mph - N/A   Clear
6:55 AM 15.8 °F 0.9 °F 1.4 °F 53% 30.20 in 10.0 mi SSW 15.0 mph - N/A   Clear
7:15 AM 15.8 °F -0.2 °F 3.2 °F 58% 30.18 in 10.0 mi SSW 17.3 mph - N/A   Clear
7:35 AM 17.6 °F 1.3 °F 3.2 °F 53% 30.15 in 10.0 mi SSW 19.6 mph 26.5 mph N/A   Clear
7:55 AM 17.6 °F 1.3 °F 3.2 °F 53% 30.15 in 10.0 mi SSW 19.6 mph 26.5 mph N/A   Clear
8:15 AM 17.6 °F 1.3 °F 5.0 °F 58% 30.13 in 10.0 mi SSW 19.6 mph - N/A   Clear
8:35 AM 19.4 °F 3.2 °F 5.0 °F 54% 30.12 in 10.0 mi SW 20.7 mph 27.6 mph N/A   Clear
8:55 AM 21.2 °F 6.8 °F 6.8 °F 54% 30.12 in 10.0 mi SW 17.3 mph 29.9 mph N/A   Clear
9:15 AM 21.2 °F 4.5 °F 6.8 °F 54% 30.10 in 10.0 mi SW 24.2 mph 29.9 mph N/A   Clear
9:35 AM 23.0 °F 8.0 °F 6.8 °F 50% 30.10 in 10.0 mi SW 20.7 mph 31.1 mph N/A   Clear
9:55 AM 24.8 °F 9.3 °F 8.6 °F 50% 30.09 in 10.0 mi SW 24.2 mph 29.9 mph N/A   Clear
10:15 AM 26.6 °F 11.4 °F 8.6 °F 47% 30.07 in 10.0 mi SW 25.3 mph 32.2 mph N/A   Clear
10:35 AM 26.6 °F 12.0 °F 8.6 °F 47% 30.06 in 10.0 mi SW 23.0 mph 31.1 mph N/A   Clear
10:55 AM 30.2 °F 17.1 °F 8.6 °F 40% 30.05 in 10.0 mi WSW 21.9 mph 28.8 mph N/A   Clear
11:15 AM 30.2 °F 17.8 °F 8.6 °F 40% 30.05 in 10.0 mi SW 19.6 mph 32.2 mph N/A   Clear
11:35 AM 32.0 °F 19.8 °F 10.4 °F 41% 30.03 in 10.0 mi SW 20.7 mph - N/A   Clear
11:55 AM 32.0 °F 20.5 °F 10.4 °F 41% 30.01 in 10.0 mi SW 18.4 mph 26.5 mph N/A   Clear
12:15 PM 33.8 °F 22.2 °F 10.4 °F 38% 29.98 in 10.0 mi WSW 20.7 mph 27.6 mph N/A   Clear
12:35 PM 35.6 °F 24.5 °F 10.4 °F 35% 29.96 in 10.0 mi SW 20.7 mph 26.5 mph N/A   Mostly Cloudy
12:55 PM 35.6 °F 25.5 °F 10.4 °F 35% 29.95 in 10.0 mi WSW 17.3 mph - N/A   Mostly Cloudy
1:15 PM 37.4 °F 28.2 °F 12.2 °F 36% 29.93 in 10.0 mi WSW 16.1 mph 25.3 mph N/A   Partly Cloudy
1:35 PM 41.0 °F 32.2 °F 12.2 °F 31% 29.91 in 10.0 mi SW 18.4 mph 24.2 mph N/A   Mostly Cloudy
1:55 PM 41.0 °F 31.6 °F 14.0 °F 33% 29.89 in 10.0 mi SW 20.7 mph 26.5 mph N/A   Overcast
2:15 PM 41.0 °F 32.2 °F 14.0 °F 33% 29.89 in 10.0 mi WSW 18.4 mph 24.2 mph N/A   Overcast
2:35 PM 42.8 °F 34.8 °F 14.0 °F 31% 29.88 in 10.0 mi WSW 17.3 mph - N/A   Mostly Cloudy
2:55 PM 42.8 °F 34.3 °F 15.8 °F 34% 29.86 in - WSW 19.6 mph - N/A   Scattered Clouds
3:15 PM 42.8 °F 35.8 °F 15.8 °F 34% 29.85 in 10.0 mi SW 13.8 mph 24.2 mph N/A   Clear
3:35 PM 42.8 °F 34.8 °F 15.8 °F 34% 29.83 in 10.0 mi SW 17.3 mph - N/A   Partly Cloudy
3:55 PM 42.8 °F 35.8 °F 15.8 °F 34% 29.82 in 10.0 mi SW 13.8 mph 23.0 mph N/A   Partly Cloudy
4:15 PM 42.8 °F 34.5 °F 15.8 °F 34% 29.82 in 10.0 mi SW 18.4 mph - N/A   Clear
4:35 PM 42.8 °F 35.1 °F 17.6 °F 36% 29.82 in 10.0 mi SW 16.1 mph - N/A   Scattered Clouds
4:55 PM 42.8 °F 34.8 °F 17.6 °F 36% 29.82 in 10.0 mi SW 17.3 mph - N/A   Mostly Cloudy
5:15 PM 42.8 °F 34.0 °F 17.6 °F 36% 29.79 in 10.0 mi SSW 20.7 mph - N/A   Overcast
5:35 PM 41.0 °F 32.5 °F 17.6 °F 39% 29.78 in 10.0 mi SSW 17.3 mph 24.2 mph N/A   Overcast
5:55 PM 41.0 °F 33.1 °F 17.6 °F 39% 29.78 in 10.0 mi SW 15.0 mph - N/A   Overcast
6:15 PM 41.0 °F 34.3 °F 17.6 °F 39% 29.77 in 10.0 mi SW 11.5 mph 17.3 mph N/A   Overcast
6:35 PM 41.0 °F 34.3 °F 17.6 °F 39% 29.76 in 10.0 mi SW 11.5 mph 17.3 mph N/A   Overcast
6:50 PM 42.8 °F 36.2 °F 19.4 °F 39% 29.75 in 10.0 mi SW 12.7 mph 18.4 mph N/A   Overcast
7:15 PM 44.6 °F 38.1 °F 21.2 °F 39% 29.74 in 10.0 mi SW 13.8 mph - N/A   Overcast
7:35 PM 42.8 °F 36.6 °F 21.2 °F 42% 29.73 in 10.0 mi SW 11.5 mph 17.3 mph N/A   Overcast
7:55 PM 42.8 °F 36.6 °F 23.0 °F 46% 29.73 in 10.0 mi SW 11.5 mph - N/A   Overcast
8:15 PM 42.8 °F 38.0 °F 26.6 °F 53% 29.72 in 10.0 mi WSW 8.1 mph - N/A   Light Drizzle
8:35 PM 42.8 °F 37.0 °F 26.6 °F 53% 29.72 in 10.0 mi WSW 10.4 mph - N/A   Overcast
8:55 PM 44.6 °F 38.4 °F 30.2 °F 57% 29.71 in 10.0 mi WSW 12.7 mph - N/A   Overcast
9:15 PM 50.0 °F - 33.8 °F 54% 29.70 in 10.0 mi West 16.1 mph 27.6 mph N/A   Overcast
9:35 PM 50.0 °F - 33.8 °F 54% 29.70 in 10.0 mi West 15.0 mph - N/A   Overcast
9:55 PM 50.0 °F - 35.6 °F 58% 29.70 in 10.0 mi West 13.8 mph - N/A   Overcast
10:15 PM 50.0 °F - 33.8 °F 54% 29.70 in 10.0 mi West 12.7 mph - N/A   Overcast
10:35 PM 50.0 °F - 33.8 °F 54% 29.70 in 10.0 mi WNW 12.7 mph 18.4 mph N/A   Overcast
10:55 PM 50.0 °F - 33.8 °F 54% 29.71 in 10.0 mi WNW 13.8 mph - N/A   Overcast
11:15 PM 50.0 °F - 33.8 °F 54% 29.72 in 10.0 mi NW 15.0 mph - N/A   Overcast
11:35 PM 50.0 °F - 33.8 °F 54% 29.74 in 10.0 mi NW 19.6 mph 29.9 mph N/A   Overcast
11:55 PM 50.0 °F - 33.8 °F 54% 29.75 in 10.0 mi NW 13.8 mph 27.6 mph N/A   Overcast